Location: Newark
(45.6000°N, 12.8833°E)
Time: 19:57:19
(UTC+00:00)

Vanguard 3 - Pass Details

Date: 28 November 2019
Orbit: 508 x 3263 km, 33.3° (Epoch: 10 December)

Event Time Altitude Azimuth Distance (km) Brightness Sun altitude
Rises 16:39:05 0° 278° (W) 7,202 13.2 -12.2°
Reaches altitude 10° 16:45:06 10° 269° (W) 6,201 12.9 -13.2°
Maximum altitude 16:59:24 27° 222° (SW) 4,508 11.5 -15.6°
Drops below altitude 10° 17:10:59 10° 172° (S) 4,936 11.2 -17.5°
Sets 17:15:07 0° 161° (SSE) 5,543 11.3 -18.2°
